Retour au catalogue

LEMUR 2 WILSON

ActifScienceSSO
NORAD 62694·PAYLOAD·🇺🇸 United States

Lancé Jan 14, 2025 depuis Vandenberg Space Force Base

Loading…

Prochains Passages (prochaines 24 heures)

TLE

FraisSource: Space-Track

Époque: Sep 13, 2026, 18:13 UTC

1 62694U 25009CP  26256.75929942  .00001913  00000-0  17796-3 0  9998
2 62694  97.6967 333.6586 0004729 100.7985 259.3769 14.95472873 90593

Suivez LEMUR 2 WILSON en temps réel avec AllMySat

Download on the App Store